Regional Weather Roundup
Issued by NWS Memphis, TN

Home | Current Version | Previous Version | Text Only | Print | Product List | Glossary On
Versions: 1 2 3 4 5 6 7 8 9 10 11 12 13 14 15 16 17 18 19 20 21 22 23 24 25 26 27 28 29 30 31 32 33 34 35 36 37 38 39 40 41 42 43 44 45 46 47 48 49 50
000
ASUS44 KMEG 191910
RWRMEG
MEMPHIS CWA HOURLY WEATHER ROUNDUP
NATIONAL WEATHER SERVICE MEMPHIS TN
200 PM CDT SAT AUG 19 2017

...WEST TENNESSEE...

CITY           SKY/WX    TMP DP  RH WIND       PRES   REMARKS
MEMPHIS INTL   MOSUNNY   89  77  67 W7        29.97F HX 101
NWS MEMPHIS      N/A     90 N/A N/A MISG        N/A
JACKSON        MOSUNNY   91  75  59 VRB7      29.97F HX 101
COVINGTON      MOSUNNY   88  75  66 NW6       29.97F HX  97
SOMERVILLE     MOSUNNY   90  75  62 NW5       29.97F HX 100
BOLIVAR        MOSUNNY   90  75  62 VRB6      29.97F HX 100
LEXINGTON      MOSUNNY   90  70  51 VRB3      29.97F HX  95
SELMER         MOSUNNY   90  72  55 VRB7      29.97F HX  96
SAVANNAH       PTSUNNY   90  70  51 CALM      29.96F HX  95
DYERSBURG      PTSUNNY   89  75  63 VRB3      29.98S HX  99
UNION CITY     SUNNY     88  72  58 CALM      29.95F HX  94
PARIS          MOSUNNY   88  72  58 VRB5      29.96S HX  94
HUNTINGDON     MOSUNNY   90  72  55 W8        29.96F HX  96


...EASTERN ARKANSAS...

CITY           SKY/WX    TMP DP  RH WIND       PRES   REMARKS
JONESBORO      MOSUNNY   91  78  65 CALM      29.95F HX 106
WEST MEMPHIS   MOSUNNY   90  78  68 VRB3      29.96F HX 104
BATESVILLE     MOSUNNY   93  72  49 N3        29.96F HX 100
NEWPORT        SUNNY     91  76  61 NE3       29.96F HX 103
WALNUT RIDGE   SUNNY     91  75  59 E5        29.95F HX 102
BLYTHEVILLE    SUNNY     90  77  65 CALM      29.97S HX 103
SEARCY         MOSUNNY   94  80  64 SE6       29.98F HX 113
PINE BLUFF     MOSUNNY   91  73  55 W5        29.97F HX  99
MONTICELLO     SUNNY     93  74  53 CALM      29.98F HX 103


...NORTH MISSISSIPPI...

CITY           SKY/WX    TMP DP  RH WIND       PRES   REMARKS
TUPELO         SUNNY     94  68  42 NW6       29.97F HX  98
OXFORD         SUNNY     91  73  55 NW6       30.00F HX 100
BATESVILLE     MOSUNNY   91  75  60 SW5       29.99S HX 101
OLIVE BRANCH   PTSUNNY  N/A N/A N/A CALM      29.97F
TUNICA           N/A     90  77  66 SW5       29.98F HX 102
CLARKSDALE       N/A     93  79  62 CALM      29.98S HX 110
GREENWOOD      MOSUNNY   93  75  55 VRB3      29.97F HX 104
COLUMBUS       MOSUNNY   91  80  71 W3        29.97F HX 109
STARKVILLE     MOSUNNY   91  72  52 N3        29.99F HX  98
GOLDEN TRIANGL PTSUNNY   93  73  52 NW9       29.94F HX 102


...SOUTHEAST MISSOURI...

CITY           SKY/WX    TMP DP  RH WIND       PRES   REMARKS
KENNETT        MOSUNNY   91  72  52 CALM      29.94F HX  98
MALDEN         SUNNY     91  70  49 NW3       29.97S HX  97
WEST PLAINS    PTSUNNY   90  70  51 N7        30.00F HX  95
POPLAR BLUFF   MOSUNNY   92  74  55 E3        29.95S HX 101
CAPE GIRARDEAU MOSUNNY   89  71  55 CALM      29.95S HX  95


...NORTHWEST ALABAMA...

CITY           SKY/WX    TMP DP  RH WIND       PRES   REMARKS
MUSCLE SHOALS  MOSUNNY   90  71  53 NW5       29.99F HX  96


...MIDDLE TENNESSEE...

CITY           SKY/WX    TMP DP  RH WIND       PRES   REMARKS
NASHVILLE      PTSUNNY   90  65  43 CALM      29.99F HX  92
CLARKSVILLE    MOSUNNY   87  69  54 VRB7      29.97F HX  91
COLUMBIA       MOSUNNY   88  70  55 CALM      29.98F HX  92


...WESTERN KENTUCKY...

CITY           SKY/WX    TMP DP  RH WIND       PRES   REMARKS
PADUCAH        SUNNY     91  68  46 CALM      29.95S HX  95
FORT CAMPBELL  MOSUNNY   87  71  58 SW5       29.97S HX  92


...CENTRAL ARKANSAS...

CITY           SKY/WX    TMP DP  RH WIND       PRES   REMARKS
LITTLE ROCK    MOSUNNY   91  78  65 S6        29.97F HX 106


SKY/WX REPORTED AS FAIR MEANS FEW OR NO CLOUDS BELOW
12 THOUSAND FEET.





USA.gov is the U.S. government's official web portal to all federal, state and local government web resources and services.